Rochester, NH

7:55 AM EDT on April 24, 2018 (GMT -0400)
Skyhaven

Weather History for KDAW - October, 2011

Change the Weather History Date:

Tuesday, October 4, 2011

  Actual Average (KPSM) Record (KPSM)
Temperature  
Mean Temperature 55 °F -  
Max Temperature 57 °F 62 °F 82 °F (2001)
Min Temperature 53 °F 42 °F 31 °F (1989)
Degree Days  
Heating Degree Days 10    
Growing Degree Days 5 (Base 50)    
Moisture  
Dew Point 55 °F    
Average Humidity 96    
Maximum Humidity 100    
Minimum Humidity 88    
Precipitation  
Precipitation 0.70 in - - ()
Sea Level Pressure  
Sea Level Pressure 29.96 in    
Wind  
Wind Speed 6 mph (North)    
Max Wind Speed 15 mph    
Max Gust Speed 28 mph    
Visibility 7 miles    
Events Rain    
Averages and records for this station are not official NWS values.
T = Trace of Precipitation, MM = Missing Value Source: NWS Daily Summary

Daily Weather History Graph

Daily Weather History Graph

Search for Another Location

Airport or City:

Astronomy

Oct. 04, 2011 Rise Set
Actual Time 6:44 AM EDT 6:20 PM EDT
Civil Twilight 6:15 AM EDT 6:48 PM EDT
Nautical Twilight 5:42 AM EDT 7:21 PM EDT
Astronomical Twilight 5:09 AM EDT 7:54 PM EDT
Moon 2:30 PM EDT (10/4) No Moon Set
Length of Visible Light 12h 32m
Length of Day
11h 35m
First Quarter, 56% of the Moon is Illuminated
Oct 4
First Quarter
Oct 11
Full
Oct 19
Last Quarter
Oct 26
New
Nov 2
First Quarter

Hourly Weather History & Observations

Time (EDT) Temp. Dew Point Humidity Pressure Visibility Wind Dir Wind Speed Gust Speed Precip Events Conditions
12:51 AM 54.0 °F 53.1 °F 97% 30.05 in 10.0 mi Calm Calm - 0.01 in   Overcast
1:17 AM 53.6 °F 53.6 °F 100% 30.04 in 9.0 mi North 4.6 mph - 0.00 in Rain Light Rain
1:51 AM 55.0 °F 54.0 °F 96% 30.04 in 6.0 mi North 4.6 mph - 0.00 in Rain Light Rain
2:06 AM 55.4 °F 53.6 °F 94% 30.04 in 7.0 mi North 4.6 mph - 0.00 in Rain Light Rain
2:28 AM 55.4 °F 55.4 °F 100% 30.03 in 6.0 mi North 5.8 mph - 0.01 in Rain Light Rain
2:46 AM 55.4 °F 55.4 °F 100% 30.02 in 7.0 mi North 5.8 mph - 0.02 in Rain Light Rain
2:51 AM 55.9 °F 55.0 °F 97% 30.01 in 8.0 mi NNE 4.6 mph - 0.02 in   Overcast
3:51 AM 55.9 °F 55.0 °F 97% 30.00 in 8.0 mi North 4.6 mph - 0.00 in   Overcast
3:57 AM 55.4 °F 55.4 °F 100% 30.00 in 8.0 mi NNE 4.6 mph - 0.00 in Rain Light Rain
4:30 AM 55.4 °F 53.6 °F 94% 30.01 in 10.0 mi Variable 5.8 mph - 0.00 in   Overcast
4:42 AM 55.4 °F 55.4 °F 100% 30.00 in 10.0 mi North 5.8 mph - 0.00 in   Overcast
4:51 AM 55.9 °F 54.0 °F 93% 29.99 in 9.0 mi North 6.9 mph - 0.00 in   Overcast
5:33 AM 55.4 °F 53.6 °F 94% 30.00 in 10.0 mi NNE 5.8 mph - N/A   Overcast
5:40 AM 55.4 °F 53.6 °F 94% 30.00 in 10.0 mi North 8.1 mph - N/A   Overcast
5:51 AM 55.0 °F 54.0 °F 96% 29.99 in 10.0 mi North 9.2 mph - N/A   Overcast
6:51 AM 55.0 °F 53.1 °F 93% 29.98 in 10.0 mi North 8.1 mph - 0.01 in   Overcast
7:19 AM 53.6 °F 53.6 °F 100% 29.98 in 3.0 mi North 8.1 mph - 0.00 in Rain Light Rain
7:51 AM 55.0 °F 54.0 °F 96% 29.98 in 5.0 mi North 6.9 mph - 0.00 in   Overcast
8:51 AM 55.9 °F 55.0 °F 97% 29.97 in 7.0 mi NNE 6.9 mph - 0.01 in Rain Light Rain
9:10 AM 55.4 °F 55.4 °F 100% 29.98 in 2.0 mi North 6.9 mph - 0.08 in Rain Heavy Rain
9:26 AM 55.4 °F 55.4 °F 100% 29.98 in 9.0 mi North 5.8 mph - 0.09 in Rain Light Rain
9:51 AM 55.9 °F 55.0 °F 97% 29.98 in 3.0 mi North 6.9 mph - 0.15 in Rain Rain
9:56 AM 55.4 °F 55.4 °F 100% 29.98 in 1.8 mi North 6.9 mph - 0.04 in Rain Heavy Rain
10:04 AM 55.4 °F 55.4 °F 100% 29.98 in 1.2 mi North 6.9 mph - 0.12 in Rain Heavy Rain
10:40 AM 55.4 °F 55.4 °F 100% 29.97 in 2.5 mi NNW 9.2 mph - 0.33 in Rain Light Rain
10:47 AM 55.4 °F 55.4 °F 100% 29.97 in 3.0 mi NNW 9.2 mph - 0.33 in Rain Light Rain
10:51 AM 55.9 °F 55.0 °F 97% 29.96 in 6.0 mi NNW 8.1 mph - 0.33 in Rain Light Rain
10:59 AM 55.4 °F 55.4 °F 100% 29.97 in 4.0 mi NNW 6.9 mph - 0.01 in Rain Light Rain
11:02 AM 55.4 °F 55.4 °F 100% 29.97 in 2.5 mi NNW 6.9 mph - 0.02 in Rain Light Rain
11:06 AM 55.4 °F 55.4 °F 100% 29.97 in 1.8 mi North 4.6 mph - 0.03 in Rain Light Rain
11:40 AM 55.4 °F 55.4 °F 100% 29.96 in 2.0 mi North 8.1 mph - 0.12 in Rain Light Rain
12:15 PM 57.2 °F 55.4 °F 94% 29.95 in 2.5 mi North 9.2 mph - 0.01 in Rain Light Rain
12:34 PM 57.2 °F 55.4 °F 94% 29.95 in 1.5 mi North 8.1 mph - 0.03 in Rain Light Rain
12:51 PM 57.0 °F 55.9 °F 96% 29.94 in 1.5 mi North 5.8 mph - 0.06 in Rain Light Rain
1:11 PM 57.2 °F 55.4 °F 94% 29.94 in 2.5 mi North 8.1 mph - 0.04 in Rain Light Rain
1:28 PM 57.2 °F 55.4 °F 94% 29.93 in 1.5 mi North 8.1 mph - 0.07 in Rain Rain
1:40 PM 57.2 °F 55.4 °F 94% 29.93 in 2.5 mi NNE 6.9 mph - 0.08 in Rain Light Rain
1:47 PM 57.2 °F 55.4 °F 94% 29.93 in 4.0 mi North 10.4 mph - 0.08 in Rain Light Rain
1:51 PM 57.0 °F 55.9 °F 96% 29.93 in 4.0 mi North 11.5 mph - 0.08 in Rain Light Rain
2:13 PM 57.2 °F 55.4 °F 94% 29.93 in 10.0 mi North 8.1 mph - 0.00 in   Overcast
2:15 PM 57.2 °F 55.4 °F 94% 29.93 in 10.0 mi North 9.2 mph - 0.00 in   Overcast
2:51 PM 57.0 °F 55.0 °F 93% 29.92 in 10.0 mi North 8.1 mph - 0.01 in Rain Light Rain
3:28 PM 57.2 °F 55.4 °F 94% 29.91 in 10.0 mi North 10.4 mph 16.1 mph 0.00 in Rain Light Rain
3:51 PM 57.9 °F 55.0 °F 90% 29.91 in 10.0 mi North 10.4 mph 17.3 mph 0.00 in   Overcast
4:11 PM 57.2 °F 53.6 °F 88% 29.91 in 4.0 mi North 9.2 mph - 0.00 in Rain Light Rain
4:51 PM 57.0 °F 54.0 °F 89% 29.90 in 10.0 mi North 5.8 mph - 0.00 in   Overcast
5:51 PM 57.0 °F 54.0 °F 89% 29.89 in 10.0 mi North 4.6 mph - 0.00 in Rain Light Rain
6:51 PM 55.9 °F 54.0 °F 93% 29.90 in 10.0 mi NNW 9.2 mph - 0.02 in   Overcast
7:32 PM 55.4 °F 53.6 °F 94% 29.90 in 10.0 mi NNW 9.2 mph - 0.00 in Rain Light Rain
7:51 PM 55.9 °F 55.0 °F 97% 29.90 in 10.0 mi NNW 10.4 mph 17.3 mph 0.00 in   Overcast
8:12 PM 55.4 °F 53.6 °F 94% 29.90 in 10.0 mi North 15.0 mph 27.6 mph N/A   Overcast
8:51 PM 55.0 °F 53.1 °F 93% 29.89 in 10.0 mi NNW 10.4 mph - N/A   Overcast
9:51 PM 55.9 °F 54.0 °F 93% 29.90 in 10.0 mi North 8.1 mph - N/A   Overcast
10:17 PM 55.4 °F 53.6 °F 94% 29.91 in 10.0 mi North 9.2 mph - N/A   Overcast
10:25 PM 55.4 °F 53.6 °F 94% 29.91 in 10.0 mi NNE 6.9 mph - N/A   Overcast
10:47 PM 55.4 °F 53.6 °F 94% 29.90 in 6.0 mi North 9.2 mph - 0.00 in Rain Light Rain
11:03 PM 55.4 °F 53.6 °F 94% 29.90 in 10.0 mi NNW 6.9 mph - 0.00 in   Overcast
11:41 PM 55.4 °F 53.6 °F 94% 29.89 in 10.0 mi NNW 9.2 mph - 0.00 in Rain Light Rain
11:51 PM 55.0 °F 53.1 °F 93% 29.88 in 10.0 mi NNW 9.2 mph - 0.00 in Rain Light Rain